Home   Weather   Bujumbura   Past weeks

Flag for Burundi Past Weather in Bujumbura, Burundi — Yesterday and Last 2 Weeks

Now
84 °F

Partly sunny.


Feels Like: 87 °F
Forecast: 66 / 84 °F
Wind: 18 mph from Southeast

Location: Kigoma Airport

Current Time: Apr 23, 2017 at 12:21:47 pm

Latest Report: Apr 23, 2017 at 11:00 am


Visibility: N/A

Pressure: 30.12 "Hg (27.53 "Hg at 794m altitude)

Humidity: 55%

Dew Point: 66 °F

Location of BujumburaLocation

Past Weather in Bujumbura — Graph

°F

Bujumbura Temperature Yesterday

Maximum temperature yesterday: 86 °F (at 1:00 pm)
Minimum temperature yesterday: 70 °F (at 5:00 am)
Average temperature yesterday: 79 °F

High & Low Weather Summary for the Past Weeks

 TemperatureHumidityPressure
High90 °F (Apr 14, 1:00 pm)100% (Apr 10, 4:00 am)30.15 "Hg (Apr 10, 4:00 am)
Low66 °F (Apr 9, 6:00 am)41% (Apr 14, 1:00 pm)29.89 "Hg (Apr 18, 8:00 am)
Average77 °F77%30.05 "Hg
* Reported Apr 8 11:00 am — Apr 23 11:00 am, Bujumbura, Weather by CustomWeather, © 2017

Note: Actual official high and low records may vary slightly from our data, if they occured in-between our weather recording intervals... More about our weather records

Advertising

Bujumbura Weather History for the Previous 24 Hours

Scroll right to see more
 ConditionsComfort  
Time TempWeatherWind HumidityBarometerVisibility
11:00 am
Sun, Apr 23
84 °FPartly sunny.18 mph55%30.12 "HgN/A
10:00 am82 °FScattered clouds.16 mph55%30.12 "HgN/A
9:00 am81 °FScattered clouds.12 mph62%30.12 "HgN/A
8:00 am72 °FScattered clouds.No wind88%30.12 "HgN/A
7:00 am70 °FPartly sunny.No wind94%30.09 "HgN/A
6:00 am68 °FPartly sunny.No wind94%30.09 "HgN/A
1:00 am72 °FPassing clouds.No wind94%30.07 "HgN/A
10:00 pm
Sat, Apr 22
73 °FPassing clouds.No wind83%30.04 "HgN/A
9:00 pm75 °FPassing clouds.No wind83%30.01 "HgN/A
8:00 pm75 °FPassing clouds.No wind83%30.01 "HgN/A
6:00 pm81 °FPassing clouds.No wind66%29.98 "HgN/A
5:00 pm82 °FPartly sunny.6 mph66%29.98 "HgN/A
4:00 pm84 °FPartly sunny.12 mph58%29.98 "HgN/A
3:00 pm84 °FScattered clouds.12 mph58%29.98 "HgN/A
2:00 pm86 °FScattered clouds.12 mph59%30.01 "HgN/A
1:00 pm86 °FScattered clouds.12 mph52%30.04 "HgN/A
12:00 pm84 °FPassing clouds.12 mph55%30.07 "HgN/A
Weather by CustomWeather, © 2017

See weather overviewHow to use our weather pages